This is the latest recevied weather packets stored in our database for station/object KB4MLW-13. If no packets are shown the sender has not sent any weather packets the latest 10 day(s).
| Time | Temp. | Humidity | Pressure | Rain* | Wind** | Luminosity | Snow |
|---|---|---|---|---|---|---|---|
| 1788280409 | 33.33° C | 65% | 1002.9 hPa | 0 mm | - | - | - |
| 1788280318 | 33.89° C | 65% | 1003 hPa | 0 mm | - | - | - |
| 1788280258 | 33.89° C | 65% | 1003.2 hPa | 0 mm | - | - | - |
| 1788280198 | 33.33° C | 63% | 1002.8 hPa | 0 mm | - | - | - |
| 1788280109 | 33.33° C | 64% | 1003 hPa | 0 mm | - | - | - |
| 1788280048 | 33.33° C | 65% | 1003.1 hPa | 0 mm | - | - | - |
| 1788279959 | 33.33° C | 65% | 1003 hPa | 0 mm | - | - | - |
| 1788279898 | 33.33° C | 63% | 1003 hPa | 0 mm | - | - | - |
| 1788279838 | 33.33° C | 64% | 1003.1 hPa | 0 mm | - | - | - |
| 1788279751 | 33.33° C | 65% | 1002.9 hPa | 0 mm | - | - | - |
| 1788279658 | 33.33° C | 63% | 1002.9 hPa | 0 mm | - | - | - |
| 1788279569 | 32.78° C | 67% | 1003 hPa | 0 mm | - | - | - |
| 1788279508 | 32.78° C | 66% | 1002.8 hPa | 0 mm | - | - | - |
| 1788279419 | 33.33° C | 68% | 1002.9 hPa | 0 mm | - | - | - |
| 1788279358 | 33.33° C | 69% | 1002.9 hPa | 0 mm | - | - | - |
| 1788279298 | 33.33° C | 66% | 1002.9 hPa | 0 mm | - | - | - |
| 1788279238 | 32.78° C | 66% | 1003.1 hPa | 0 mm | - | - | - |
| 1788279150 | 32.78° C | 66% | 1003.2 hPa | 0 mm | - | - | - |
| 1788279088 | 32.78° C | 66% | 1003 hPa | 0 mm | - | - | - |
| 1788279028 | 32.78° C | 67% | 1003.1 hPa | 0 mm | - | - | - |
| 1788278968 | 32.78° C | 65% | 1003.1 hPa | 0 mm | - | - | - |
| 1788278879 | 33.33° C | 67% | 1003.1 hPa | 0 mm | - | - | - |
| 1788278827 | 33.33° C | 64% | 1003.2 hPa | 0 mm | - | - | - |
| 1788278758 | 33.33° C | 66% | 1003.1 hPa | 0 mm | - | - | - |
| 1788278698 | 33.33° C | 66% | 1002.9 hPa | 0 mm | - | - | - |
* Rain latest hour (hover to see other rain measurements)
** Current wind speed in m/s (hover to see current wind gust speed)